STARLINK-37190, 68396

Orbit data source: Space-Track

STARLINK-37190, 68396 is a payload satellite owned by SpaceX/Seattle (US) in SSO that was launched on Thu, 26 Mar 2026 UTC via an FALCON 9 launch vehicle from the Air Force Western Test Range (AFWTR). Payload-class satellites include a variety of spacecraft equipped with specific instruments for various scientific and technological missions. These include communications satellites like Starlink; space stations such as the ISS; scientific satellites like the Hubble; Earth observation satellites from companies like Planet Labs, Umbra, and HawkEye 360; GPS; miniature CubeSats for education and research; and military/defense satellites.

Loading next visibility...
Identifier
68396, 2026-063S
Orbit
SSO
Country
Flag of USUS
Related business
Manufacturer
SpaceX/Seattle
Mission
Operational spacecraft
Bus & Motor
STARLINK V2MO, Unknown motor
Mass
575 kg wet, ~530 kg dry
Launch date (UTC)
2026-03-26 (3 months ago)
Launch vehicle
FALCON 9
Launch site
Air Force Western Test Range (AFWTR)
Object type
Payload
Rocket body
Debris
Shape & HBR
Unknown shape, 17.7 m
Radar Cross Section
Large (>1 m²)

Expand to show TLE details & history
Last TLE update: 16 hours ago

TLE from 16 hours ago
0 STARLINK-37190
1 68396U 26063S   26165.36369779  .00022711  00000-0  70387-3 0  9990
2 68396  97.2855 307.6865 0000788  76.4571 283.6759 15.33436434 12715
Epoch: 2026-06-14T08:43Z
TLE epoch observation values (Epoch: 2026-06-14T08:43:43.489Z)
Latitude
-0.00005°
Longitude
-85.9102°
Altitude
468.553 km
Speed
7.632 km/s
True Right ascension
20h 30m 44s
True Declination
0° 00' 00"
Sunlit
Object was in full shadow at epoch
Visualization orbit readout
Latitude
Unknown
Longitude
Unknown
Altitude
Unknown
Speed
Unknown
Apparent Right ascension
Unknown
Apparent Declination
Unknown
Sunlit
N/A
Visualization observer readout
Local Sidereal Time
11:27:39
Azimuth
Unknown
Elevation
Unknown
Doppler factor
Unknown
Orbital elements
Apogee altitude
463.05 km
Perigee altitude
461.972 km
Semi-major axis
6,840.648 km
Eccentricity
0.00008
Inclination
97.2855°
RAAN
307.6865°
Arg. of periapsis
76.4571°
True anomaly
283.66713°
Mean anomaly
283.6759°
Eccentric anomaly
283.67151°
Mean motion
3.83616 °/min
Orbital period
93.84 mins
BSTAR
0.00070387
Loading maneuver chart data...
Computing Atmospheric mass density...
Loading historical data...
Loading historical data...
Loading historical data...
Loading historical data...
Loading historical data...
Loading historical data...
Loading historical data...

Documentation

Showing up to 5 results
|